Location: Izdebno
(52.6670°N, 16.2170°E)
Time: 04:25:43
(UTC+02:00)

A-11 Canister half - Pass Details

Date: 11 February 2023
Orbit: 1526 x 1682 km, 47.3° (Epoch: 24 March)

Event Time Altitude Azimuth Distance (km) Brightness Sun altitude
Rises 02:59:39 0° 208° (SSW) 4,693 - -38.9°
Reaches altitude 10° 03:03:08 10° 198° (SSW) 3,700 - -38.4°
Exits shadow 03:10:02 31° 151° (SSE) 2,446 9.9 -37.5°
Maximum altitude 03:10:53 31° 141° (SE) 2,426 10.0 -37.4°
Drops below altitude 10° 03:18:38 10° 84° (E) 3,705 11.7 -36.4°
Sets 03:22:07 0° 75° (ENE) 4,700 12.5 -35.9°
